Regional Weather Roundup
Issued by NWS

Home | Current Version | Previous Version | Graphics & Text | Print | Product List | Glossary On
Versions: 1 2 3 4 5 6 7 8 9 10 11 12 13 14 15 16 17 18 19 20 21 22 23 24 25 26 27 28 29 30 31 32 33 34 35 36 37 38 39 40 41 42 43 44 45 46 47 48 49 50
000
ASUS45 KABQ 272101
RWRNM
WEATHER ROUNDUP FOR NEW MEXICO
NATIONAL WEATHER SERVICE ALBUQUERQUE NM
200 PM MST THU NOV 27 2014

NOTE: "FAIR" MEANS FEW OR NO CLOUDS BELOW 12,000 FEET AGL WITH NO
       SIGNIFICANT WEATHER OR OBSTRUCTIONS TO VISION.

      THIS PRODUCT IS RELEASED AS TWO VERSIONS.  ONE VERSION NEAR
      THE TOP OF THE HOUR CONTAINING PRELIMINARY DATA FROM ALBUQUERQUE
      AND OTHER STATIONS.  A FINAL VERSION WITH ADDITIONAL DATA IS
      ISSUED ABOUT 10 MINUTES AFTER THE HOUR.

NMZ501-503-504-510>518-272200-
NORTHWEST PLATEAU/NORTHCENTRAL MOUNTAINS

CITY           SKY/WX    TMP DP  RH WIND       PRES   REMARKS
FARMINGTON     SUNNY     55  23  28 SW5       30.36F
SANTA FE       SUNNY     58  20  22 S8        30.36F
TAOS           SUNNY     54  21  28 CALM      30.39F

$$
NMZ402-403-502-505>509-272200-
WESTCENTRAL MOUNTAINS/SOUTHWEST MOUNTAINS

CITY           SKY/WX    TMP DP  RH WIND       PRES   REMARKS
GALLUP         FAIR      62  17  17 N3        30.38F
SILVER CITY    FAIR      64  19  17 S8        30.37F

$$
NMZ407-409-411-412-272200-
SOUTHERN DESERTS

CITY           SKY/WX    TMP DP  RH WIND       PRES   REMARKS
DEMING         FAIR      66  22  18 VRB3      30.32F
HOLLOMAN AFB   MOSUNNY   65  24  21 W5        30.31F
T OR C         FAIR      64  21  19 VRB5      30.33F

$$
NMZ519>523-272200-
CENTRAL VALLEYS/CENTRAL HIGHLANDS

CITY           SKY/WX    TMP DP  RH WIND       PRES   REMARKS
ALBUQUERQUE    MOSUNNY   58  23  26 CALM      30.36F
DOUBLE EAGLE   SUNNY     57  23  26 CALM      30.37F
MORIARTY ARPT  FAIR      64  23  21 NW3       30.35F
CLINES CORNERS SUNNY     59  23  25 W18       30.35F
BELEN          FAIR      60  21  22 N5        30.36F
SOCORRO        NOT AVBL

$$
NMZ524>526-539-540-272200-
SOUTHCENTRAL MOUNTAINS

CITY           SKY/WX    TMP DP  RH WIND       PRES   REMARKS
RUIDOSO        SUNNY     63  23  22 NW7       30.39S

$$
NMZ527>531-272200-
NORTHEAST HIGHLANDS/NORTHEAST PLAINS

CITY           SKY/WX    TMP DP  RH WIND       PRES   REMARKS
LAS VEGAS      SUNNY     66  12  12 S14       30.31F
RATON          CLOUDY    59  21  23 SW3       30.26F
CLAYTON        PTSUNNY   64  25  22 SW12      30.19F

$$
NMZ532>537-272200-
EASTCENTRAL PLAINS

CITY           SKY/WX    TMP DP  RH WIND       PRES   REMARKS
TUCUMCARI      SUNNY     63  28  26 SW14      30.23F
CANNON AFB     SUNNY     63  26  24 SW16G22   30.27F
CLOVIS AIRPORT SUNNY     63  28  27 SW18G24   30.27F

$$
NMZ028-029-538-272200-
SOUTHEAST PLAINS

CITY           SKY/WX    TMP DP  RH WIND       PRES   REMARKS
ROSWELL        SUNNY     61  30  31 S13       30.30F
CARLSBAD       SUNNY     60  31  33 SE9       30.30F
HOBBS          SUNNY     59  28  31 S14       30.34F


$$


USA.gov is the U.S. government's official web portal to all federal, state and local government web resources and services.